Regional Weather Roundup
Issued by NWS Upton, NY

Current Version | Previous Version | Text Only | Print | Product List | Glossary On
Versions: 1 2 3 4 5 6 7 8 9 10 11 12 13 14 15 16 17 18 19 20 21 22 23 24 25 26 27 28 29 30 31 32 33 34 35 36 37 38 39 40 41 42 43 44 45 46 47 48 49 50
000
ASUS41 KOKX 050208
RWROKX

REGIONAL WEATHER ROUNDUP
NATIONAL WEATHER SERVICE NEW YORK NY
900 PM EST SUN DEC 04 2016

NOTE: "FAIR" INDICATES FEW OR NO CLOUDS BELOW 12,000 FEET WITH NO
SIGNIFICANT WEATHER AND/OR OBSTRUCTIONS TO VISIBILITY.

NYZ071-072-176-178-NJZ106-104-050300-
NEW YORK CITY METRO AREA

CITY           SKY/WX    TMP DP  RH WIND       PRES   REMARKS
Central Park   CLOUDY    41  24  51 CALM      30.19F
Wall St Helipt CLOUDY    43  29  57 NE13      30.18F
Bronx Bot Gard NOT AVBL
LaGuardia APRT CLOUDY    43  24  47 E9        30.17F
Kennedy INTL   CLOUDY    40  23  50 E6        30.19F
Breezy Point     N/A     39 N/A N/A NE7         N/A  WCI  34
Newark/Liberty CLOUDY    43  24  47 E6        30.17F
Teterboro      CLOUDY    40  21  46 NE5       30.17F
$$

NYZ177-179-078>081-050300-
LONG ISLAND NEW YORK

CITY           SKY/WX    TMP DP  RH WIND       PRES   REMARKS
Jones Beach      N/A     39 N/A N/A E7          N/A  WCI  34
Matinecock PT    N/A     41 N/A N/A E12         N/A
Farmingdale    MOCLDY    37  24  59 E3        30.18F
MacArthur/ISP  CLOUDY    34  25  69 CALM      30.18F
Shirley        CLOUDY    31  23  72 CALM      30.19F
Westhampton    CLOUDY    28  22  78 CALM      30.21F
Southampton    NOT AVBL
Bridgehampton  NOT AVBL
East Hampton     N/A     26  21  80 CALM      30.19F
Montauk          N/A     38  23  55 N3        30.20S
$$

NYZ052-065-067-050300-
HUDSON VALLEY

CITY           SKY/WX    TMP DP  RH WIND       PRES   REMARKS
White Plains   MOCLDY    35  20  54 CALM      30.16F
Newburgh       CLOUDY    32  25  74 NE8       30.19F WCI  25
Montgomery     MOCLDY    31  23  72 N5        30.17F WCI  26
Poughkeepsie   MOCLDY    29  23  78 CALM      30.18F
Albany         CLOUDY    25  18  74 CALM      30.19F
$$

NJZ001-105-106-008-010-013-015-019>022-104-050300-
NEW JERSEY

CITY           SKY/WX    TMP DP  RH WIND       PRES   REMARKS
Newark/Liberty CLOUDY    43  24  47 E6        30.17F
Teterboro      CLOUDY    40  21  46 NE5       30.17F
Caldwell       CLOUDY    39  23  52 E7        30.18F WCI  34
Somerville     CLOUDY    36  27  69 CALM      30.15F
Linden           N/A    N/A N/A N/A CALM      30.18S
Sussex         MOCLDY    34  23  64 N7        30.17S WCI  28
Andover          N/A     35  24  64 NE5       30.16F WCI  31
Trenton        MOCLDY    40  27  59 CALM      30.16F
Millville      CLOUDY    38  34  85 CALM      30.17S
Atlantic City  MOCLDY    37  29  72 E5        30.16F WCI  33
Wrightstown    NOT AVBL
Toms River     MOCLDY    35  30  82 CALM      30.17F
Belmar         CLOUDY    40  25  55 CALM      30.18F
$$

PAZ047>061-062-071-050300-
EASTERN PENNSYLVANIA

CITY           SKY/WX    TMP DP  RH WIND       PRES   REMARKS
Philadelphia   CLOUDY    42  31  64 SE3       30.16F
Allentown      CLOUDY    40  26  57 NE5       30.13F
Scranton       MOCLDY    38  23  55 SE5       30.09F WCI  34
$$

CTZ002-004>006-009-010-012-RIZ004-006-007-MAZ004-011-015-050300-
SOUTHERN NEW ENGLAND
 IN CT

CITY           SKY/WX    TMP DP  RH WIND       PRES   REMARKS
Bradley INTL   MOCLDY    29  19  66 N3        30.20F
Hartford       PTCLDY    33  21  61 CALM      30.21S
Danbury        MOCLDY    29  23  78 CALM      30.19F
Wtrbury/Oxford PTCLDY    30  18  59 CALM      30.17F
Bridgeport     MOCLDY    37  21  52 N5        30.19F WCI  33
Meriden        MOCLDY    30  22  72 CALM      30.19F
New Haven      CLOUDY    33  22  63 NE3       30.19F
Chester          N/A     32  21  64 N3        30.18S
Groton         CLOUDY    33  24  69 CALM      30.20S
Wilimantic     CLOUDY    29  22  75 CALM      30.20F

 IN RI

CITY           SKY/WX    TMP DP  RH WIND       PRES   REMARKS
Providence     CLOUDY    30  21  69 CALM      30.20F
Block Island   CLOUDY    36  23  59 N3        30.20S
Westerly       PTCLDY    29  22  75 CALM      30.20F
 IN MA

CITY           SKY/WX    TMP DP  RH WIND       PRES   REMARKS
Boston         PTCLDY    34  21  59 NW8       30.21F WCI  27
Worcester      CLEAR     28  18  66 N6        30.14F WCI  22
Westfield      PTCLDY    25  22  88 N3        30.19F
Provincetown   PTCLDY    39  25  57 N9        30.19F WCI  33
Nantucket      CLEAR     30  21  69 CALM      30.19F
$$

ANZ330-335-338-340-345-350-353-355-050300-
COASTAL MARINE OBSERVATIONS


STATION/POSITION TIME  SKY/WX   TEMP    WIND        PRES    VSBY  WAVE
                                AIR SEA DIR/SP/G                  HT/PER
                 (UTC)          (F)     (DEG/KT/KT) (MB)    (MI)  (FT/S)
NY HARB ENTRANCE 0050            44 54   70/  8/ 10 1022.2          1/10
20 S FIRE ISLAND 0050            44 54   40/  6/ 10 1022.5          1/ 8
GREAT SOUTH BAY  0130            39 44                N/A
23 SSW MONTAUK P 0050            42 55   10/  6/  8 1023.0          1/ 8
15 E BARNEGAT LI 0130               54                N/A           2/ 8
HUDSON CANYON    0050            44 58              1022.6          2/ 5
KINGS POINT      0136            39 48              1022.1
EXECUTION ROCKS  0145            41      60/ 10/ 14   N/A
CENTRAL LI SOUND 0130            40 51   10/ 10/ 12   N/A           1/ 2
EASTERN LI SOUND NOT AVBL
ROBBINS REEF     0136            42     100/ 10/ 11 1021.8
$$


>>>>>>>>>>>>>>>>>>>>>>>>>>>> KEY <<<<<<<<<<<<<<<<<<<<<<<<<<<
>                                                          <
>     SKY/WX - Sky Condition/Present Weather               <
>     TMP    - Temperature in Fahrenheit                   <
>     DP     - Dew Point in Fahrenheit                     <
>     RH     - Relative Humidity in Percent                <
>     WIND   - Direction (from) and Speed in MPH           <
>     PRES   - Mean Sea Level Pressure (inches of Hg)      <
>     WCI    - Wind Chill Index                            <
>     VSB    - VISIBILITY IN MILES                         <
>     HX     - HEAT INDEX                                  <
>     TC     - TEMPERATURE IN CELSIUS                      <
>     VRB    - VARIABLE WIND DIRECTION                     <
>                                                          <
>>>>>>>>>>>>>>>>>>>>>>>>>>>> KEY <<<<<<<<<<<<<<<<<<<<<<<<<<<



USA.gov is the U.S. government's official web portal to all federal, state and local government web resources and services.